Previsão horária em Al Khafji

Hoje, 25 Junho, Sexta-feira

Tempo Temperatura Precipitação Vento Pressão Humidade
00:00 +38°C° 0 mm 3 m/s 750 mmHg 9%
01:00 +37°C° 0 mm 3 m/s 750 mmHg 9%
02:00 +37°C° 0 mm 4 m/s 749 mmHg 9%
03:00 +36°C° 0 mm 4 m/s 749 mmHg 9%
04:00 +36°C° 0 mm 5 m/s 750 mmHg 10%
05:00 +36°C° 0 mm 5 m/s 750 mmHg 10%
06:00 +36°C° 0 mm 5 m/s 750 mmHg 11%
07:00 +40°C° 0 mm 6 m/s 750 mmHg 9%
08:00 +45°C° 0 mm 6 m/s 750 mmHg 7%
09:00 +48°C° 0 mm 6 m/s 750 mmHg 6%
10:00 +49°C° 0 mm 6 m/s 750 mmHg 5%
11:00 +51°C° 0 mm 6 m/s 750 mmHg 5%
12:00 +53°C° 0 mm 5 m/s 750 mmHg 5%
13:00 +53°C° 0 mm 5 m/s 750 mmHg 5%
14:00 +53°C° 0 mm 5 m/s 749 mmHg 4%
15:00 +53°C° 0 mm 5 m/s 748 mmHg 4%
16:00 +50°C° 0 mm 4 m/s 748 mmHg 6%
17:00 +47°C° 0 mm 3 m/s 748 mmHg 7%
18:00 +45°C° 0 mm 2 m/s 748 mmHg 8%
19:00 +43°C° 0 mm 2 m/s 748 mmHg 8%
20:00 +42°C° 0 mm 3 m/s 748 mmHg 8%
21:00 +41°C° 0 mm 4 m/s 749 mmHg 8%
22:00 +41°C° 0 mm 4 m/s 749 mmHg 8%
23:00 +40°C° 0 mm 4 m/s 748 mmHg 9%

Amanhã, 26 Junho, Sábado

Tempo Temperatura Precipitação Vento Pressão Humidade
00:00 +40°C° 0 mm 5 m/s 748 mmHg 10%
01:00 +40°C° 0 mm 5 m/s 748 mmHg 10%
02:00 +38°C° 0 mm 4 m/s 748 mmHg 10%
03:00 +38°C° 0 mm 4 m/s 747 mmHg 10%
04:00 +38°C° 0 mm 4 m/s 748 mmHg 11%
05:00 +38°C° 0 mm 4 m/s 748 mmHg 11%
06:00 +37°C° 0 mm 4 m/s 749 mmHg 11%
07:00 +41°C° 0 mm 4 m/s 749 mmHg 10%
08:00 +44°C° 0 mm 4 m/s 749 mmHg 8%
09:00 +48°C° 0 mm 5 m/s 749 mmHg 7%
10:00 +50°C° 0 mm 5 m/s 749 mmHg 6%
11:00 +52°C° 0 mm 5 m/s 749 mmHg 5%
12:00 +53°C° 0 mm 5 m/s 749 mmHg 4%
13:00 +53°C° 0 mm 5 m/s 748 mmHg 5%
14:00 +52°C° 0 mm 4 m/s 748 mmHg 5%
15:00 +52°C° 0 mm 4 m/s 747 mmHg 6%
16:00 +50°C° 0 mm 4 m/s 747 mmHg 8%
17:00 +47°C° 0 mm 4 m/s 747 mmHg 10%
18:00 +44°C° 0 mm 3 m/s 747 mmHg 12%
19:00 +43°C° 0 mm 3 m/s 747 mmHg 13%
20:00 +40°C° 0 mm 3 m/s 748 mmHg 13%
21:00 +39°C° 0 mm 3 m/s 748 mmHg 14%
22:00 +40°C° 0 mm 4 m/s 748 mmHg 13%
23:00 +40°C° 0 mm 4 m/s 748 mmHg 12%

Depois de amanhã, 27 Junho, Domingo

Tempo Temperatura Precipitação Vento Pressão Humidade
00:00 +40°C° 0 mm 4 m/s 748 mmHg 12%
01:00 +40°C° 0 mm 4 m/s 748 mmHg 11%
02:00 +40°C° 0 mm 4 m/s 748 mmHg 11%
03:00 +38°C° 0 mm 4 m/s 748 mmHg 10%
04:00 +38°C° 0 mm 3 m/s 748 mmHg 10%
05:00 +38°C° 0 mm 2 m/s 749 mmHg 11%
06:00 +36°C° 0 mm 1 m/s 749 mmHg 11%
07:00 +40°C° 0 mm 1 m/s 750 mmHg 9%
08:00 +43°C° 0 mm 1 m/s 750 mmHg 8%
09:00 +46°C° 0 mm 1 m/s 750 mmHg 6%
10:00 +47°C° 0 mm 1 m/s 750 mmHg 5%
11:00 +50°C° 0 mm 2 m/s 750 mmHg 5%
12:00 +52°C° 0 mm 2 m/s 750 mmHg 4%
13:00 +52°C° 0 mm 3 m/s 749 mmHg 5%
14:00 +53°C° 0 mm 5 m/s 749 mmHg 6%
15:00 +53°C° 0 mm 6 m/s 749 mmHg 7%
16:00 +49°C° 0 mm 6 m/s 749 mmHg 10%
17:00 +47°C° 0 mm 6 m/s 749 mmHg 14%
18:00 +45°C° 0 mm 6 m/s 749 mmHg 18%
19:00 +42°C° 0 mm 5 m/s 749 mmHg 18%
20:00 +41°C° 0 mm 5 m/s 749 mmHg 18%
21:00 +40°C° 0 mm 5 m/s 750 mmHg 18%
22:00 +40°C° 0 mm 5 m/s 750 mmHg 17%
23:00 +40°C° 0 mm 4 m/s 749 mmHg 15%

28 Junho, Segunda-feira

Tempo Temperatura Precipitação Vento Pressão Humidade
00:00 +40°C° 0 mm 4 m/s 749 mmHg 13%
01:00 +38°C° 0 mm 4 m/s 749 mmHg 13%
02:00 +38°C° 0 mm 4 m/s 749 mmHg 13%
03:00 +37°C° 0 mm 4 m/s 749 mmHg 13%
04:00 +37°C° 0 mm 4 m/s 750 mmHg 13%
05:00 +37°C° 0 mm 4 m/s 750 mmHg 13%
06:00 +37°C° 0 mm 3 m/s 751 mmHg 14%
07:00 +40°C° 0 mm 3 m/s 751 mmHg 12%
08:00 +44°C° 0 mm 3 m/s 751 mmHg 10%
09:00 +46°C° 0 mm 2 m/s 751 mmHg 8%
10:00 +48°C° 0 mm 3 m/s 751 mmHg 7%
11:00 +50°C° 0 mm 4 m/s 751 mmHg 6%
12:00 +52°C° 0 mm 4 m/s 751 mmHg 5%
13:00 +52°C° 0 mm 5 m/s 751 mmHg 8%
14:00 +51°C° 0 mm 6 m/s 750 mmHg 11%
15:00 +50°C° 0 mm 7 m/s 750 mmHg 14%
16:00 +48°C° 0 mm 6 m/s 750 mmHg 17%
17:00 +46°C° 0 mm 6 m/s 750 mmHg 19%
18:00 +43°C° 0 mm 5 m/s 750 mmHg 22%
19:00 +41°C° 0 mm 5 m/s 750 mmHg 27%
20:00 +39°C° 0 mm 5 m/s 750 mmHg 32%
21:00 +36°C° 0 mm 5 m/s 750 mmHg 37%
22:00 +36°C° 0 mm 5 m/s 750 mmHg 37%
23:00 +36°C° 0 mm 4 m/s 750 mmHg 37%

29 Junho, Terça-feira

Tempo Temperatura Precipitação Vento Pressão Humidade
00:00 +35°C° 0 mm 4 m/s 750 mmHg 37%
01:00 +35°C° 0 mm 4 m/s 750 mmHg 34%
02:00 +35°C° 0 mm 4 m/s 750 mmHg 31%
03:00 +35°C° 0 mm 5 m/s 749 mmHg 29%
04:00 +36°C° 0 mm 4 m/s 750 mmHg 26%
05:00 +37°C° 0 mm 4 m/s 750 mmHg 24%
06:00 +38°C° 0 mm 3 m/s 750 mmHg 22%
07:00 +42°C° 0 mm 3 m/s 750 mmHg 18%
08:00 +45°C° 0 mm 4 m/s 751 mmHg 13%
09:00 +49°C° 0 mm 4 m/s 751 mmHg 9%
10:00 +49°C° 0 mm 5 m/s 751 mmHg 12%
11:00 +48°C° 0 mm 5 m/s 751 mmHg 14%
12:00 +48°C° 0 mm 6 m/s 751 mmHg 17%
13:00 +48°C° 0 mm 5 m/s 751 mmHg 16%
14:00 +49°C° 0 mm 5 m/s 750 mmHg 14%
15:00 +50°C° 0 mm 4 m/s 750 mmHg 13%
16:00 +48°C° 0 mm 4 m/s 750 mmHg 16%
17:00 +45°C° 0 mm 4 m/s 750 mmHg 18%
18:00 +43°C° 0 mm 4 m/s 749 mmHg 20%
19:00 +41°C° 0 mm 4 m/s 749 mmHg 26%
20:00 +39°C° 0 mm 5 m/s 750 mmHg 31%
21:00 +36°C° 0 mm 5 m/s 750 mmHg 37%
22:00 +36°C° 0 mm 5 m/s 750 mmHg 33%
23:00 +36°C° 0 mm 4 m/s 749 mmHg 30%

30 Junho, Quarta-feira

Tempo Temperatura Precipitação Vento Pressão Humidade
00:00 +36°C° 0 mm 4 m/s 749 mmHg 27%
01:00 +36°C° 0 mm 3 m/s 749 mmHg 25%
02:00 +36°C° 0 mm 3 m/s 749 mmHg 23%
03:00 +36°C° 0 mm 3 m/s 749 mmHg 21%
04:00 +36°C° 0 mm 2 m/s 750 mmHg 20%
05:00 +36°C° 0 mm 2 m/s 750 mmHg 19%
06:00 +37°C° 0 mm 2 m/s 751 mmHg 18%
07:00 +40°C° 0 mm 2 m/s 751 mmHg 15%
08:00 +43°C° 0 mm 2 m/s 751 mmHg 12%
09:00 +46°C° 0 mm 3 m/s 751 mmHg 9%
10:00 +48°C° 0 mm 3 m/s 751 mmHg 8%
11:00 +50°C° 0 mm 4 m/s 751 mmHg 8%
12:00 +53°C° 0 mm 5 m/s 751 mmHg 7%
13:00 +52°C° 0 mm 4 m/s 750 mmHg 8%
14:00 +51°C° 0 mm 4 m/s 750 mmHg 9%
15:00 +51°C° 0 mm 4 m/s 750 mmHg 10%
16:00 +48°C° 0 mm 3 m/s 749 mmHg 11%
17:00 +47°C° 0 mm 3 m/s 749 mmHg 12%
18:00 +45°C° 0 mm 3 m/s 749 mmHg 14%
19:00 +43°C° 0 mm 3 m/s 749 mmHg 17%
20:00 +40°C° 0 mm 3 m/s 750 mmHg 20%
21:00 +38°C° 0 mm 3 m/s 750 mmHg 22%
22:00 +38°C° 0 mm 4 m/s 750 mmHg 21%
23:00 +38°C° 0 mm 4 m/s 749 mmHg 20%
Mostrar mais